This is the latest recevied weather packets stored in our database for station/object LEAS. If no packets are shown the sender has not sent any weather packets the latest 10 day(s).
| Time | Temp. | Humidity | Pressure | Rain* | Wind** | Luminosity | Snow |
|---|---|---|---|---|---|---|---|
| 1787786103 | 16.11° C | 82% | 1009 hPa | - | - | - | - |
| 1787784303 | 16.11° C | 82% | 1009 hPa | - | - | - | - |
| 1787783404 | 16.11° C | 82% | 1009 hPa | - | - | - | - |
| 1787781603 | 16.11° C | 82% | 1009 hPa | - | - | - | - |
| 1787779803 | 16.11° C | 82% | 1009 hPa | - | - | - | - |
| 1787778903 | 16.11° C | 82% | 1009 hPa | - | - | - | - |
| 1787778004 | 17.22° C | 77% | 1009 hPa | - | - | - | - |
| 1787777104 | 17.22° C | 77% | 1009 hPa | - | - | - | - |
| 1787776203 | 17.22° C | 77% | 1009 hPa | - | - | - | - |
| 1787775304 | 17.22° C | 77% | 1009 hPa | - | - | - | - |
| 1787772604 | 20° C | 82% | 1007 hPa | - | - | - | - |
| 1787771703 | 20° C | 82% | 1007 hPa | - | - | - | - |
| 1787770804 | 21.11° C | 77% | 1006 hPa | - | - | - | - |
| 1787769004 | 21.11° C | 77% | 1007 hPa | - | - | - | - |
| 1787767203 | 22.22° C | 78% | 1007 hPa | - | - | - | - |
| 1787762704 | 20° C | 88% | 1006 hPa | - | - | - | - |
| 1787760004 | 22.78° C | 56% | 1006 hPa | - | - | - | - |
| 1787756403 | 21.11° C | 88% | 1006 hPa | - | - | - | - |
| 1787753703 | 20° C | 93% | 1007 hPa | - | - | - | - |
| 1787750104 | 20° C | 77% | 1006 hPa | - | - | - | - |
| 1787749203 | 20° C | 77% | 1006 hPa | - | - | - | - |
| 1787748304 | 20° C | 77% | 1006 hPa | - | - | - | - |
| 1787747403 | 20° C | 82% | 1007 hPa | - | - | - | - |
| 1787745603 | 22.22° C | 73% | 1007 hPa | - | - | - | - |
| 1787743803 | 22.78° C | 78% | 1007 hPa | - | - | - | - |
* Rain since midnight (hover to see other rain measurements)
** Current wind speed in m/s (hover to see current wind gust speed)